Le nostre stazioni meteo in Italia

Pubblicità
Il mio iltempo24.it
Dunstaffnage, Gran Bretagna (99006): Temperatura & dewpoint: 13.08.2018 09:00:00 - 19.08.2018 09:00:00 (BST)Dunstaffnage, Gran Bretagna (99006): Temperatura -20cm: 13.08.2018 09:00:00 - 19.08.2018 09:00:00 (BST)Dunstaffnage, Gran Bretagna (99006): velocità del vento & gusts: 13.08.2018 09:00:00 - 19.08.2018 09:00:00 (BST)Dunstaffnage, Gran Bretagna (99006): direzione del vento: 13.08.2018 09:00:00 - 19.08.2018 09:00:00 (BST)Dunstaffnage, Gran Bretagna (99006): precipitazioni: 13.08.2018 09:00:00 - 19.08.2018 09:00:00 (BST)
Data & Tempo tt [°C] td [°C] tt -20cm [°C] ff [km/h] ff [kn] fx [km/h] fx [kn] dd rr [mm]
19.08.2018 09:00:00 13,7 13,3 - 4 2 - - ONO 0,0
19.08.2018 08:00:00 12,9 12,6 - 5 3 - - NNE 0,6
19.08.2018 07:00:00 12,8 12,5 - 4 2 - - NNE 0,4
19.08.2018 06:00:00 12,9 12,6 - 8 4 - - N 1,0
19.08.2018 05:00:00 12,8 12,4 - 4 2 - - N 1,2
19.08.2018 04:00:00 12,7 12,3 - 4 2 - - E 0,6
19.08.2018 03:00:00 12,7 12,2 - 8 4 - - NNE 0,4
19.08.2018 02:00:00 12,8 12,3 - 8 4 - - NE 0,0
19.08.2018 01:00:00 12,9 12,3 - 9 5 - - NE 0,0
19.08.2018 00:00:00 12,8 12,2 - 9 5 - - E 0,2
18.08.2018 23:00:00 12,7 12,0 - 5 3 - - E 0,0
18.08.2018 22:00:00 12,8 11,8 - 4 2 - - SSO 0,2
18.08.2018 21:00:00 12,9 11,7 - 5 3 - - S 0,0
18.08.2018 20:00:00 13,3 12,0 - 5 3 - - SSO 0,0
18.08.2018 19:00:00 13,7 11,9 - 8 4 - - OSO 0,0
18.08.2018 18:00:00 13,8 11,8 - 11 6 - - OSO 0,0
18.08.2018 17:00:00 13,8 11,7 - 16 9 - - SO 0,0
18.08.2018 16:00:00 14,0 11,8 - 11 6 - - OSO 0,0
18.08.2018 15:00:00 14,0 12,0 - 15 8 - - SO 0,0
18.08.2018 14:00:00 13,8 12,3 - 15 8 - - SO 0,0
18.08.2018 13:00:00 13,4 11,4 - 11 6 - - SO 0,0
18.08.2018 12:00:00 14,3 11,2 - 24 13 - - OSO 0,2
18.08.2018 11:00:00 13,7 12,1 - 24 13 - - OSO 0,2
18.08.2018 10:00:00 14,7 12,1 15,0 26 14 - - OSO 0,0
18.08.2018 09:00:00 14,3 12,6 - 24 13 - - OSO 0,0
18.08.2018 08:00:00 13,8 12,1 - 24 13 - - OSO 0,0
18.08.2018 07:00:00 13,7 12,5 - 18 10 - - OSO 0,2
18.08.2018 06:00:00 13,8 12,8 - 21 11 - - OSO 0,2
18.08.2018 05:00:00 14,2 13,0 - 21 11 - - OSO 0,0
18.08.2018 04:00:00 14,3 12,9 - 21 11 - - OSO 0,0
18.08.2018 03:00:00 14,3 12,9 - 22 12 - - OSO 0,0
18.08.2018 02:00:00 14,2 12,7 - 21 11 - - OSO 0,0
18.08.2018 01:00:00 14,0 12,4 - 15 8 - - OSO 0,0
18.08.2018 00:00:00 14,0 12,0 - 15 8 - - OSO 0,0
17.08.2018 23:00:00 14,0 11,6 - 22 12 - - OSO 0,0
17.08.2018 22:00:00 14,1 12,4 - 26 14 - - OSO 0,0
17.08.2018 21:00:00 14,1 11,6 - 26 14 - - OSO 0,0
17.08.2018 20:00:00 14,3 13,2 - 22 12 - - OSO 0,0
17.08.2018 19:00:00 14,3 13,6 - 18 10 - - OSO 0,0
17.08.2018 18:00:00 14,6 14,2 - 21 11 - - OSO 0,2
17.08.2018 17:00:00 14,6 14,2 - 18 10 - - SO 0,2
17.08.2018 16:00:00 14,7 14,1 - 15 8 - - SO 0,8
17.08.2018 15:00:00 14,1 13,2 - 18 10 - - S 0,6
17.08.2018 14:00:00 13,3 12,3 - 24 13 - - S 0,0
17.08.2018 13:00:00 12,7 11,8 - 18 10 - - S 0,4
17.08.2018 12:00:00 12,7 11,8 - 22 12 - - S 0,8
17.08.2018 11:00:00 12,7 11,8 - 18 10 - - S 0,6
17.08.2018 10:00:00 12,6 11,8 15,2 15 8 - - SSO 0,8
17.08.2018 09:00:00 12,5 11,6 - 13 7 - - SO 1,2
17.08.2018 08:00:00 12,6 10,9 - 11 6 - - SSO 0,0
17.08.2018 07:00:00 12,6 10,7 - 13 7 - - OSO 0,0
17.08.2018 06:00:00 12,0 10,4 - 13 7 - - OSO 0,2
17.08.2018 05:00:00 12,1 10,1 - 18 10 - - OSO 0,0
17.08.2018 04:00:00 11,9 10,6 - 5 3 - - SO 0,0
17.08.2018 03:00:00 11,8 10,5 - 18 10 - - OSO 0,4
17.08.2018 02:00:00 12,1 10,5 - 21 11 - - OSO 0,0
17.08.2018 01:00:00 12,1 11,2 - 18 10 - - OSO 0,6
17.08.2018 00:00:00 11,7 10,8 - 8 4 - - SO 0,2
16.08.2018 23:00:00 11,9 11,0 - 13 7 - - OSO 2,0
16.08.2018 22:00:00 12,3 10,5 - 15 8 - - OSO 0,0
16.08.2018 21:00:00 12,9 10,9 - 16 9 - - OSO 0,0
16.08.2018 20:00:00 12,2 10,9 - 9 5 - - SO 1,2
16.08.2018 19:00:00 14,1 10,6 - 16 9 - - OSO 0,0
16.08.2018 18:00:00 14,9 10,6 - 18 10 - - OSO 0,0
16.08.2018 17:00:00 16,1 12,2 - 16 9 - - OSO 0,0
16.08.2018 16:00:00 15,8 10,7 - 22 12 - - OSO 0,0
16.08.2018 15:00:00 16,8 14,0 - 16 9 - - SO 1,0
16.08.2018 14:00:00 14,0 11,3 - 21 11 - - OSO 1,4
16.08.2018 13:00:00 14,2 11,1 - 24 13 - - OSO 0,0
16.08.2018 12:00:00 15,6 12,9 - 21 11 48 26 SO 0,6
16.08.2018 11:00:00 15,0 12,5 - 22 12 - - SO 0,4
16.08.2018 10:00:00 12,7 11,0 15,2 16 9 - - SO 0,4
16.08.2018 09:00:00 13,6 11,5 - 15 8 - - SSO 0,0
16.08.2018 08:00:00 12,3 11,4 - 15 8 - - SO 1,0
16.08.2018 07:00:00 11,8 10,6 - 11 6 - - SSO 0,2
16.08.2018 06:00:00 11,8 10,5 - 13 7 - - SO 0,2
16.08.2018 05:00:00 12,1 11,0 - 11 6 - - SSO 1,2
16.08.2018 04:00:00 12,0 10,5 - 11 6 - - SO 0,0
16.08.2018 03:00:00 11,7 10,2 - 8 4 - - SO 0,0
16.08.2018 02:00:00 11,7 10,4 - 9 5 - - OSO 0,0
16.08.2018 01:00:00 11,8 10,9 - 9 5 - - SO 0,0
16.08.2018 00:00:00 12,6 11,4 - 11 6 - - OSO 0,0
15.08.2018 23:00:00 12,0 10,8 - 8 4 - - SO 0,4
15.08.2018 22:00:00 13,2 12,4 - 13 7 - - OSO 1,6
15.08.2018 21:00:00 13,6 12,4 - 4 2 - - S 0,2
15.08.2018 20:00:00 14,1 12,3 - 9 5 - - SSO 0,2
15.08.2018 19:00:00 14,4 11,3 - 13 7 - - SSO 0,0
15.08.2018 18:00:00 14,3 11,5 - 9 5 - - SSE 0,0
15.08.2018 17:00:00 14,4 12,6 - 11 6 - - S 0,4
15.08.2018 16:00:00 14,7 12,4 - 11 6 - - S 0,0
15.08.2018 15:00:00 14,6 13,1 - 8 4 - - SSO 0,0
15.08.2018 14:00:00 14,1 13,0 - 11 6 - - OSO 0,2
15.08.2018 13:00:00 14,9 12,2 - 8 4 - - SSO 0,0
15.08.2018 12:00:00 15,0 12,8 - 9 5 - - SO 0,0
15.08.2018 11:00:00 14,6 12,8 - 16 9 - - SO 0,0
15.08.2018 10:00:00 14,6 13,5 15,9 9 5 - - SSO 0,0
15.08.2018 09:00:00 14,6 13,9 - 13 7 - - SO 0,0
15.08.2018 08:00:00 14,7 14,1 - 16 9 - - OSO 0,4
15.08.2018 07:00:00 15,0 14,6 - 15 8 - - SO 0,0
15.08.2018 06:00:00 15,2 14,8 - 16 9 - - OSO 0,0
15.08.2018 05:00:00 15,6 15,3 - 21 11 - - OSO 0,2
15.08.2018 04:00:00 15,8 15,5 - 16 9 - - SO 1,0
15.08.2018 03:00:00 14,0 13,6 - 4 2 - - E 0,8
15.08.2018 02:00:00 13,9 13,5 - 9 5 - - E 0,8
15.08.2018 01:00:00 13,9 13,3 - 8 4 - - E 0,0
15.08.2018 00:00:00 13,9 13,3 - 8 4 - - S 0,2
14.08.2018 23:00:00 13,8 13,2 - 9 5 - - SSE 0,0
14.08.2018 22:00:00 13,6 12,9 - 5 3 - - SSO 0,0
14.08.2018 21:00:00 14,0 13,0 - 9 5 - - SO 0,0
14.08.2018 20:00:00 14,1 13,3 - 13 7 - - SO 0,0
14.08.2018 19:00:00 14,6 13,6 - 15 8 - - SO 0,0
14.08.2018 18:00:00 15,1 13,5 - 18 10 - - SO 0,0
14.08.2018 17:00:00 15,6 14,5 - 15 8 - - SSO 0,0
14.08.2018 16:00:00 16,0 14,9 - 16 9 - - SO 0,2
14.08.2018 15:00:00 15,9 15,3 - 21 11 - - OSO 0,0
14.08.2018 14:00:00 15,7 15,1 - 21 11 - - OSO 0,2
14.08.2018 13:00:00 16,4 15,8 - 18 10 - - SO 0,2
14.08.2018 12:00:00 15,0 14,3 - 9 5 - - S 1,0
14.08.2018 11:00:00 14,7 14,0 - 13 7 - - S 2,4
14.08.2018 10:00:00 14,4 13,8 16,0 5 3 - - SSO 0,4
14.08.2018 09:00:00 14,0 13,1 - 5 3 - - SO 0,0
14.08.2018 08:00:00 14,1 13,5 - 8 4 - - SSO 0,0
14.08.2018 07:00:00 13,9 13,3 - 11 6 - - SO 0,2
14.08.2018 06:00:00 13,5 13,0 - 9 5 - - S 0,2
14.08.2018 05:00:00 13,2 12,5 - 5 3 - - SSE 0,0
14.08.2018 04:00:00 13,5 12,5 - 8 4 - - S 0,0
14.08.2018 03:00:00 13,2 12,5 - 8 4 - - SSE 0,0
14.08.2018 02:00:00 13,4 12,7 - 8 4 - - SO 0,0
14.08.2018 01:00:00 13,4 12,6 - 8 4 - - SSO 0,0
14.08.2018 00:00:00 13,5 12,1 - 4 2 - - OSO 0,0
13.08.2018 23:00:00 13,8 12,1 - 5 3 - - SO 0,0
13.08.2018 22:00:00 13,6 11,9 - 5 3 - - OSO 0,0
13.08.2018 21:00:00 14,4 11,9 - 8 4 - - SSO 0,0
13.08.2018 20:00:00 14,6 12,0 - 9 5 - - SO 0,0
13.08.2018 19:00:00 15,5 12,2 - 9 5 - - SO 0,0
13.08.2018 18:00:00 15,9 13,2 - 9 5 - - SO 0,0
13.08.2018 17:00:00 15,7 12,5 - 13 7 - - OSO 0,0
13.08.2018 16:00:00 15,9 13,2 - 13 7 - - OSO 0,0
13.08.2018 15:00:00 15,5 13,1 - 16 9 - - SO 0,0
13.08.2018 14:00:00 16,0 15,1 - 13 7 - - O 0,0
13.08.2018 13:00:00 15,2 14,2 - 8 4 - - OSO 0,2
13.08.2018 12:00:00 16,3 15,7 - 2 1 - - E 0,0
13.08.2018 11:00:00 15,3 15,0 - 5 3 - - NE 0,0
13.08.2018 10:00:00 14,0 13,7 16,0 4 2 - - NE 0,4
13.08.2018 09:00:00 13,9 13,6 - 2 1 - - ONO 0,0

tt = Temperatura
td = dewpoint
tt -20cm = Temperatura -20cm
ff = velocità del vento
fx = gusts
dd = direzione del vento
rr = precipitazioni

Stazioni seguenti

WeatherPro
AMSI
MeteoEarth